TimeCDT,TemperatureF,Dew PointF,Humidity,Sea Level PressureIn,VisibilityMPH,Wind Direction,Wind SpeedMPH,Gust SpeedMPH,PrecipitationIn,Events,Conditions,WindDirDegrees,DateUTC
12:53 AM,53.1,46.9,80,29.78,10.0,SW,3.5,-,N/A,,Clear,220,2013-03-16 05:53:00
1:53 AM,51.1,46.9,86,29.78,10.0,SSW,3.5,-,N/A,,Clear,210,2013-03-16 06:53:00
2:53 AM,50.0,48.0,93,29.76,10.0,SSW,4.6,-,N/A,,Clear,210,2013-03-16 07:53:00
3:53 AM,46.9,45.0,93,29.75,10.0,Calm,Calm,-,N/A,,Clear,0,2013-03-16 08:53:00
4:53 AM,46.0,43.0,89,30.05,6.0,Calm,Calm,-,N/A,,Clear,0,2013-03-16 09:53:00
5:53 AM,45.0,43.0,93,30.06,8.0,Calm,Calm,-,N/A,,Clear,0,2013-03-16 10:53:00
6:53 AM,46.9,46.0,97,30.06,2.5,SW,3.5,-,N/A,,Clear,220,2013-03-16 11:53:00
7:07 AM,46.4,46.4,100,30.10,1.8,Calm,Calm,-,N/A,,Scattered Clouds,0,2013-03-16 12:07:00
7:18 AM,46.4,46.4,100,30.10,1.0,Calm,Calm,-,N/A,,Mist,0,2013-03-16 12:18:00
7:29 AM,46.4,46.4,100,30.11,0.8,Calm,Calm,-,N/A,,Mist,0,2013-03-16 12:29:00
7:53 AM,48.9,48.0,97,30.08,2.5,Calm,Calm,-,N/A,,Scattered Clouds,0,2013-03-16 12:53:00
8:00 AM,50.0,48.2,94,30.12,4.0,Calm,Calm,-,N/A,,Partly Cloudy,0,2013-03-16 13:00:00
8:53 AM,57.0,52.0,83,30.08,10.0,Variable,3.5,-,N/A,,Clear,0,2013-03-16 13:53:00
9:53 AM,66.0,51.1,59,29.78,10.0,SW,8.1,-,N/A,,Clear,220,2013-03-16 14:53:00
10:53 AM,69.1,46.9,45,29.78,10.0,West,9.2,19.6,N/A,,Clear,270,2013-03-16 15:53:00
11:53 AM,72.0,48.0,43,29.76,10.0,Variable,5.8,-,N/A,,Clear,0,2013-03-16 16:53:00
12:53 PM,75.0,45.0,34,29.75,10.0,West,9.2,16.1,N/A,,Clear,270,2013-03-16 17:53:00
1:53 PM,75.0,45.0,34,29.72,10.0,SW,8.1,18.4,N/A,,Clear,220,2013-03-16 18:53:00
2:53 PM,75.9,48.0,37,29.68,10.0,WSW,8.1,21.9,N/A,,Clear,240,2013-03-16 19:53:00
3:53 PM,77.0,48.0,36,29.66,10.0,SW,8.1,19.6,N/A,,Partly Cloudy,220,2013-03-16 20:53:00
4:53 PM,75.0,50.0,41,29.65,10.0,SW,8.1,19.6,N/A,,Clear,230,2013-03-16 21:53:00
5:53 PM,73.9,48.9,41,29.94,10.0,Variable,5.8,-,N/A,,Clear,0,2013-03-16 22:53:00
6:53 PM,70.0,48.9,47,29.96,10.0,Variable,5.8,16.1,N/A,,Clear,0,2013-03-16 23:53:00
7:53 PM,66.9,50.0,54,29.97,10.0,SSW,3.5,-,N/A,,Clear,200,2013-03-17 00:53:00
8:53 PM,64.0,52.0,65,29.70,10.0,SSW,3.5,-,N/A,,Clear,210,2013-03-17 01:53:00
9:53 PM,62.1,53.1,72,29.72,10.0,SSW,3.5,-,N/A,,Clear,200,2013-03-17 02:53:00
10:53 PM,60.1,54.0,80,29.72,10.0,SSW,3.5,-,N/A,,Clear,200,2013-03-17 03:53:00
11:53 PM,59.0,54.0,83,29.72,10.0,Calm,Calm,-,N/A,,Clear,0,2013-03-17 04:53:00